Location: G�kdere
(37.0328°N, 30.9000°E)
Time: 22:19:30
(UTC+00:00)

ATLAS CENTAUR R/B - Pass Details

Date: 03 March 2021
Orbit: 475 x 670 km, 64.7° (Epoch: 30 March)

Event Time Altitude Azimuth Distance (km) Brightness Sun altitude
Rises 16:39:48 0° 209° (SSW) 2,535 5.1 -10.2°
Reaches altitude 10° 16:41:56 10° 209° (SSW) 1,646 4.2 -10.7°
Maximum altitude 16:45:35 89° 121° (ESE) 479 1.0 -11.4°
Drops below altitude 10° 16:49:14 10° 30° (NNE) 1,648 3.5 -12.1°
Enters shadow 16:50:49 - 31° (NNE) 2,301 4.2 -12.4°
